Temp
-12 -12 -13 -13 -13 -13 -13 -13 -14 -14 -14 -14 -14 -14 -14 -14 -14 -14 -14 -14 -14 -13 -13 -13 -12 -12 -12 -12 -11 -11 -11 -11 -10 -10 -9 -9 -8 -8 -7 -7 -7 -7 -7 -6 -6 -6 -6 -6 -6 -6 -5 -5 -5 -5 -4 -4 -4 -4 -3 -3 -3 -2 -2
-12 -12 -13 -13 -13 -13 -13 -14 -14 -14 -14 -14 -15 -15 -15 -15 -15 -15 -15 -14 -14 -14 -14 -14 -13 -14 -14 -13 -12 -13 -12 -12 -11 -10 -10 -9 -9 -8 -8 -7 -7 -7 -7 -7 -7 -7 -7 -6 -6 -6 -6 -6 -5 -5 -5 -5 -5 -4 -4 -4 -4 -3 -3
-12 -13 -13 -13 -13 -13 -14 -14 -14 -14 -15 -15 -15 -15 -15 -15 -15 -15 -15 -15 -15 -15 -15 -15 -15 -15 -16 -15 -14 -14 -14 -13 -12 -11 -11 -10 -10 -9 -8 -8 -8 -7 -7 -7 -7 -7 -7 -7 -7 -7 -6 -6 -6 -6 -6 -5 -5 -5 -5 -5 -4 -4 -4
-13 -13 -13 -13 -13 -14 -14 -14 -15 -15 -15 -15 -16 -16 -16 -16 -16 -16 -15 -15 -15 -16 -16 -16 -16 -17 -16 -16 -15 -15 -14 -14 -13 -12 -12 -11 -10 -10 -9 -9 -8 -8 -7 -7 -7 -7 -7 -7 -7 -7 -7 -7 -7 -6 -6 -6 -6 -6 -6 -5 -5 -5 -5
-13 -13 -13 -13 -14 -14 -14 -14 -15 -15 -16 -16 -16 -16 -16 -16 -16 -16 -16 -16 -16 -16 -16 -17 -17 -17 -17 -16 -16 -15 -14 -14 -13 -13 -12 -12 -11 -10 -10 -9 -9 -8 -8 -7 -7 -7 -7 -7 -7 -7 -7 -7 -7 -7 -7 -6 -6 -6 -6 -6 -6 -6 -6
-14 -14 -14 -14 -14 -14 -15 -15 -15 -16 -16 -16 -16 -16 -16 -16 -16 -16 -16 -16 -17 -17 -17 -17 -17 -17 -17 -16 -16 -15 -15 -14 -14 -14 -13 -13 -12 -11 -11 -10 -10 -9 -9 -8 -8 -7 -8 -8 -8 -8 -8 -8 -7 -7 -7 -7 -7 -7 -7 -7 -7 -7 -7
-14 -14 -15 -15 -15 -15 -15 -16 -16 -16 -16 -16 -16 -17 -17 -17 -17 -17 -17 -17 -17 -18 -18 -18 -17 -17 -17 -17 -16 -16 -15 -15 -15 -14 -14 -14 -13 -13 -12 -11 -11 -10 -10 -9 -9 -8 -8 -8 -8 -8 -8 -8 -8 -8 -8 -7 -7 -7 -7 -7 -7 -7 -7
-15 -15 -15 -16 -16 -16 -16 -16 -17 -17 -17 -17 -17 -17 -17 -17 -17 -17 -17 -18 -18 -18 -18 -18 -18 -17 -17 -17 -17 -16 -16 -16 -15 -15 -15 -14 -14 -14 -13 -13 -12 -11 -11 -10 -10 -9 -9 -9 -9 -9 -8 -8 -8 -8 -8 -8 -8 -8 -7 -7 -7 -7 -7
-16 -16 -16 -17 -17 -17 -17 -17 -17 -17 -17 -17 -17 -17 -17 -17 -17 -17 -18 -18 -18 -18 -18 -18 -18 -18 -17 -17 -17 -17 -17 -17 -16 -16 -16 -15 -15 -14 -14 -14 -13 -13 -12 -11 -11 -10 -10 -9 -9 -9 -9 -9 -9 -8 -8 -8 -8 -8 -8 -8 -7 -7 -7
-17 -17 -17 -17 -17 -17 -17 -17 -17 -17 -17 -17 -17 -18 -18 -18 -18 -18 -19 -19 -19 -18 -18 -18 -18 -18 -18 -18 -18 -18 -17 -17 -17 -17 -16 -16 -16 -15 -15 -15 -14 -14 -13 -13 -12 -11 -10 -10 -10 -9 -9 -9 -9 -9 -9 -8 -8 -8 -8 -8 -8 -8 -8
-17 -17 -17 -17 -17 -17 -18 -18 -18 -18 -18 -18 -18 -18 -18 -18 -19 -19 -19 -19 -19 -19 -19 -18 -18 -18 -18 -18 -18 -18 -18 -18 -18 -18 -17 -17 -17 -16 -16 -16 -16 -15 -15 -14 -13 -13 -12 -11 -11 -10 -10 -10 -10 -10 -9 -9 -9 -9 -9 -9 -9 -9 -9
-18 -18 -18 -18 -18 -18 -18 -18 -18 -18 -18 -18 -19 -19 -19 -19 -19 -20 -19 -19 -19 -19 -19 -18 -18 -18 -18 -18 -18 -18 -18 -18 -18 -18 -18 -18 -18 -17 -17 -17 -17 -16 -16 -15 -15 -14 -13 -13 -12 -12 -11 -11 -11 -11 -10 -10 -10 -10 -10 -10 -10 -10 -10
-18 -18 -18 -18 -18 -18 -18 -18 -18 -19 -19 -19 -19 -19 -19 -20 -20 -19 -19 -19 -19 -19 -19 -19 -19 -19 -19 -19 -19 -18 -18 -19 -19 -19 -19 -19 -19 -18 -18 -18 -18 -17 -17 -16 -16 -15 -14 -14 -13 -13 -12 -12 -12 -12 -12 -11 -11 -11 -11 -11 -11 -11 -11
-18 -18 -19 -19 -19 -19 -19 -19 -19 -19 -19 -19 -20 -19 -19 -20 -20 -19 -19 -19 -19 -19 -19 -19 -19 -19 -19 -19 -19 -19 -20 -20 -20 -20 -20 -19 -19 -19 -19 -19 -19 -18 -18 -17 -17 -16 -16 -15 -14 -14 -13 -13 -13 -13 -12 -12 -12 -12 -12 -12 -12 -12 -11
-19 -19 -19 -20 -20 -20 -20 -20 -20 -20 -20 -20 -20 -20 -20 -20 -20 -20 -20 -20 -20 -20 -20 -20 -19 -19 -20 -20 -20 -20 -20 -20 -20 -20 -20 -20 -20 -20 -20 -19 -19 -19 -19 -19 -18 -18 -17 -17 -16 -15 -14 -14 -14 -13 -13 -13 -13 -13 -13 -13 -13 -13 -13
-20 -20 -20 -20 -20 -20 -20 -20 -20 -20 -20 -21 -21 -20 -20 -21 -20 -20 -20 -20 -20 -20 -20 -20 -20 -20 -21 -21 -21 -21 -21 -21 -21 -21 -21 -20 -20 -20 -20 -20 -20 -20 -20 -20 -19 -19 -18 -18 -17 -16 -15 -15 -15 -15 -15 -14 -14 -14 -14 -14 -14 -14 -14
-21 -21 -21 -21 -21 -21 -20 -20 -20 -21 -21 -21 -21 -21 -21 -21 -21 -21 -21 -21 -21 -20 -20 -20 -21 -21 -21 -21 -21 -21 -22 -22 -22 -21 -21 -21 -20 -20 -20 -21 -21 -21 -21 -20 -20 -19 -18 -18 -18 -17 -16 -16 -16 -16 -16 -16 -16 -15 -15 -15 -15 -15 -15
-21 -21 -21 -21 -21 -21 -21 -21 -21 -21 -21 -21 -21 -21 -21 -21 -21 -21 -21 -21 -21 -21 -21 -21 -21 -21 -22 -22 -22 -22 -22 -22 -22 -22 -21 -21 -21 -21 -21 -21 -21 -21 -21 -21 -20 -20 -19 -19 -19 -19 -18 -18 -17 -17 -17 -17 -17 -16 -16 -16 -16 -16 -16
-22 -21 -21 -21 -21 -21 -21 -21 -21 -22 -22 -21 -21 -21 -22 -21 -21 -21 -21 -21 -21 -21 -22 -22 -22 -22 -22 -22 -22 -22 -22 -22 -22 -22 -22 -21 -21 -21 -21 -21 -21 -21 -21 -21 -21 -20 -20 -20 -20 -19 -19 -18 -18 -18 -17 -17 -17 -17 -17 -16 -16 -16 -16
-22 -22 -22 -22 -22 -22 -22 -22 -22 -22 -22 -21 -21 -21 -22 -22 -22 -22 -22 -22 -22 -22 -22 -22 -22 -22 -22 -22 -22 -22 -23 -23 -22 -22 -22 -22 -21 -21 -21 -21 -21 -21 -21 -21 -21 -21 -20 -20 -20 -20 -19 -19 -19 -18 -18 -18 -18 -18 -17 -17 -17 -17 -17
-22 -22 -22 -22 -22 -22 -22 -22 -22 -22 -22 -22 -21 -22 -22 -22 -22 -22 -22 -22 -22 -22 -22 -23 -23 -22 -22 -22 -22 -23 -23 -24 -23 -22 -22 -22 -22 -22 -22 -22 -22 -22 -22 -22 -21 -21 -21 -21 -20 -20 -20 -20 -20 -19 -19 -19 -18 -18 -18 -18 -18 -18 -18
-23 -22 -22 -22 -23 -23 -23 -23 -23 -23 -22 -22 -22 -22 -22 -23 -23 -23 -23 -23 -23 -23 -23 -23 -23 -23 -23 -23 -23 -23 -24 -24 -24 -23 -23 -23 -23 -23 -23 -23 -23 -22 -22 -22 -22 -22 -21 -21 -21 -21 -21 -20 -20 -20 -20 -19 -19 -19 -19 -19 -19 -19 -19
-23 -23 -23 -23 -23 -23 -23 -23 -23 -23 -23 -23 -23 -23 -23 -23 -23 -23 -23 -23 -23 -23 -23 -23 -23 -23 -24 -24 -24 -24 -24 -23 -23 -23 -24 -24 -24 -23 -23 -23 -23 -23 -23 -22 -22 -22 -22 -22 -21 -21 -21 -21 -21 -21 -20 -20 -20 -20 -20 -20 -20 -19 -19
-23 -23 -23 -23 -23 -23 -23 -23 -23 -23 -23 -23 -23 -24 -24 -24 -23 -23 -23 -23 -23 -23 -24 -24 -24 -24 -24 -24 -24 -24 -24 -23 -24 -24 -24 -24 -24 -24 -24 -23 -23 -23 -23 -23 -23 -23 -23 -22 -22 -22 -22 -22 -22 -21 -21 -21 -20 -20 -20 -20 -20 -20 -19
-24 -24 -24 -24 -24 -24 -24 -24 -23 -23 -23 -23 -24 -24 -24 -24 -24 -24 -24 -24 -24 -24 -24 -24 -25 -24 -24 -24 -24 -24 -24 -24 -25 -24 -24 -24 -24 -24 -24 -24 -23 -23 -23 -23 -23 -23 -23 -23 -22 -22 -22 -22 -22 -21 -21 -21 -21 -21 -21 -21 -20 -20 -20
-24 -24 -24 -24 -24 -24 -24 -24 -24 -24 -24 -24 -24 -24 -24 -24 -24 -24 -24 -24 -24 -24 -25 -25 -25 -25 -25 -25 -25 -25 -25 -25 -25 -24 -24 -24 -24 -24 -24 -24 -24 -24 -24 -24 -23 -23 -23 -23 -22 -22 -22 -22 -22 -22 -22 -22 -22 -22 -22 -21 -21 -21 -21
-24 -24 -24 -24 -24 -24 -24 -24 -24 -24 -24 -24 -24 -24 -25 -25 -25 -24 -24 -24 -25 -25 -25 -25 -25 -26 -25 -25 -25 -25 -25 -25 -25 -24 -24 -24 -24 -24 -24 -24 -24 -24 -24 -24 -23 -23 -23 -23 -22 -22 -22 -22 -23 -23 -23 -23 -22 -22 -22 -22 -22 -22 -21
-24 -24 -24 -24 -25 -25 -25 -25 -25 -25 -25 -25 -25 -25 -25 -25 -25 -25 -25 -25 -25 -25 -25 -25 -25 -25 -25 -25 -25 -25 -25 -25 -24 -24 -24 -24 -24 -24 -24 -24 -24 -24 -24 -24 -23 -23 -23 -23 -23 -23 -23 -23 -23 -23 -23 -22 -22 -22 -22 -22 -22 -22 -22
-24 -24 -25 -25 -25 -25 -25 -25 -25 -25 -25 -25 -25 -25 -26 -26 -26 -25 -25 -25 -25 -25 -25 -25 -25 -25 -25 -25 -25 -25 -25 -24 -24 -24 -24 -24 -24 -24 -24 -24 -24 -24 -24 -24 -23 -23 -23 -23 -23 -23 -23 -23 -23 -23 -23 -23 -22 -23 -22 -22 -22 -23 -22
-24 -25 -25 -25 -25 -25 -25 -24 -25 -25 -25 -25 -26 -26 -26 -26 -26 -26 -25 -25 -25 -25 -25 -25 -25 -25 -25 -25 -25 -25 -24 -24 -24 -24 -24 -24 -24 -24 -24 -24 -24 -24 -24 -24 -24 -24 -24 -24 -24 -24 -23 -23 -23 -23 -23 -23 -23 -23 -23 -23 -23 -23 -23
-25 -25 -25 -25 -25 -25 -25 -25 -25 -25 -25 -25 -25 -26 -26 -26 -25 -26 -26 -26 -26 -26 -26 -25 -25 -25 -25 -25 -25 -25 -25 -25 -25 -24 -24 -24 -24 -24 -24 -24 -24 -24 -24 -24 -24 -24 -24 -24 -24 -24 -24 -24 -24 -24 -23 -23 -23 -23 -23 -23 -23 -23 -23
-25 -25 -25 -25 -25 -25 -25 -25 -25 -25 -25 -25 -25 -26 -26 -26 -25 -25 -25 -26 -26 -26 -26 -25 -25 -25 -25 -25 -25 -25 -25 -25 -25 -25 -25 -25 -25 -25 -25 -25 -25 -25 -25 -25 -25 -25 -25 -25 -25 -24 -24 -24 -24 -24 -24 -24 -24 -23 -23 -24 -24 -24 -24
-25 -26 -25 -25 -25 -25 -25 -25 -25 -25 -25 -26 -26 -26 -26 -26 -25 -25 -25 -26 -26 -26 -26 -25 -25 -25 -25 -25 -25 -25 -25 -25 -25 -25 -25 -25 -25 -25 -25 -25 -25 -25 -25 -25 -25 -25 -25 -25 -25 -24 -24 -24 -24 -24 -24 -24 -24 -23 -24 -24 -24 -24 -24
-25 -26 -26 -26 -26 -26 -26 -26 -26 -26 -26 -26 -26 -26 -26 -27 -26 -26 -26 -26 -26 -26 -26 -25 -25 -25 -25 -25 -25 -25 -25 -25 -25 -25 -25 -25 -25 -25 -25 -25 -25 -25 -25 -25 -25 -25 -25 -25 -25 -24 -24 -24 -24 -24 -24 -24 -24 -24 -23 -23 -24 -24 -24
-25 -25 -26 -26 -26 -26 -26 -26 -26 -26 -26 -26 -27 -27 -26 -26 -26 -26 -26 -26 -25 -25 -25 -25 -25 -25 -25 -25 -25 -25 -25 -25 -25 -25 -25 -25 -25 -25 -25 -25 -25 -25 -25 -25 -25 -25 -25 -24 -24 -24 -24 -24 -24 -24 -24 -24 -24 -23 -23 -23 -24 -24 -24
-25 -25 -25 -25 -25 -25 -26 -25 -25 -25 -25 -26 -26 -26 -26 -25 -25 -26 -26 -25 -25 -25 -25 -25 -25 -25 -25 -25 -25 -25 -25 -25 -25 -25 -25 -25 -25 -25 -25 -25 -25 -25 -25 -25 -25 -25 -24 -24 -24 -24 -24 -24 -24 -24 -24 -24 -24 -24 -24 -24 -24 -24 -24
Height
1461 1459 1458 1457 1456 1455 1454 1452 1451 1450 1449 1447 1446 1444 1443 1442 1440 1439 1437 1436 1434 1433 1432 1431 1429 1429 1428 1427 1426 1426 1426 1426 1426 1426 1426 1426 1426 1426 1427 1427 1427 1425 1422 1422 1425 1427 1428 1429 1429 1429 1430 1430 1431 1432 1433 1434 1434 1435 1436 1437 1439 1441 1443
1457 1456 1455 1453 1452 1451 1450 1449 1448 1447 1446 1445 1443 1442 1440 1439 1438 1436 1435 1433 1431 1430 1429 1428 1426 1425 1425 1424 1423 1423 1423 1422 1422 1423 1422 1423 1423 1422 1423 1424 1424 1423 1420 1419 1421 1423 1424 1426 1427 1427 1428 1428 1428 1429 1430 1431 1431 1431 1432 1433 1434 1436 1437
1454 1452 1451 1450 1449 1448 1447 1446 1445 1444 1443 1442 1440 1439 1438 1436 1435 1433 1432 1430 1428 1427 1426 1425 1424 1423 1422 1421 1421 1420 1420 1420 1419 1419 1419 1419 1419 1419 1419 1420 1420 1420 1418 1416 1417 1419 1421 1422 1423 1424 1424 1425 1425 1426 1427 1427 1428 1428 1429 1429 1430 1432 1434
1449 1448 1448 1447 1446 1444 1443 1442 1441 1440 1440 1439 1438 1436 1435 1434 1432 1431 1429 1427 1426 1424 1423 1422 1421 1420 1420 1420 1419 1419 1418 1418 1417 1417 1416 1416 1416 1416 1416 1416 1416 1416 1416 1414 1414 1416 1417 1418 1420 1420 1421 1421 1422 1423 1424 1424 1425 1426 1426 1427 1427 1429 1431
1445 1445 1444 1443 1442 1441 1440 1439 1438 1437 1436 1435 1434 1433 1432 1430 1429 1428 1426 1424 1423 1422 1421 1420 1419 1419 1418 1418 1418 1417 1416 1416 1415 1415 1414 1413 1413 1413 1413 1412 1412 1412 1412 1412 1411 1412 1414 1415 1416 1417 1417 1418 1419 1420 1421 1422 1423 1423 1424 1425 1425 1426 1428
1442 1441 1440 1439 1438 1437 1436 1435 1434 1433 1432 1432 1431 1430 1428 1427 1426 1424 1423 1421 1420 1419 1419 1418 1417 1417 1417 1416 1415 1415 1414 1413 1413 1412 1412 1411 1411 1410 1410 1410 1409 1409 1409 1409 1408 1409 1410 1411 1412 1413 1414 1415 1416 1416 1418 1419 1420 1421 1422 1422 1423 1424 1426
1438 1437 1436 1435 1434 1433 1432 1432 1431 1430 1429 1428 1427 1426 1425 1424 1422 1421 1420 1418 1417 1417 1416 1415 1415 1415 1415 1414 1413 1412 1412 1411 1411 1410 1410 1409 1409 1408 1407 1407 1407 1406 1406 1406 1406 1406 1407 1408 1409 1410 1410 1412 1413 1414 1415 1416 1417 1418 1419 1419 1420 1422 1424
1435 1434 1433 1432 1430 1430 1429 1428 1427 1426 1426 1425 1424 1423 1421 1420 1419 1418 1416 1416 1415 1415 1414 1413 1413 1413 1412 1412 1411 1410 1409 1409 1409 1408 1407 1407 1407 1406 1406 1405 1405 1404 1404 1404 1404 1404 1404 1405 1405 1406 1407 1409 1410 1411 1412 1413 1414 1415 1416 1416 1418 1420 1421
1431 1430 1429 1428 1427 1427 1426 1425 1424 1423 1422 1421 1420 1419 1418 1416 1416 1415 1413 1413 1413 1412 1412 1411 1410 1410 1410 1410 1409 1408 1407 1407 1407 1406 1405 1405 1404 1404 1404 1404 1403 1403 1403 1402 1402 1402 1402 1402 1402 1403 1404 1405 1407 1408 1409 1410 1411 1412 1413 1414 1415 1417 1418
1429 1428 1426 1425 1424 1423 1423 1422 1421 1420 1419 1418 1416 1415 1413 1412 1412 1411 1411 1410 1410 1410 1409 1409 1408 1408 1408 1408 1407 1406 1405 1405 1405 1404 1404 1403 1402 1402 1402 1402 1402 1402 1402 1401 1401 1400 1400 1400 1400 1401 1401 1402 1403 1404 1405 1407 1407 1409 1410 1411 1412 1414 1415
1426 1425 1423 1422 1421 1420 1419 1418 1417 1416 1415 1414 1413 1412 1411 1409 1409 1408 1408 1408 1408 1408 1407 1407 1406 1406 1406 1406 1406 1405 1404 1403 1403 1403 1402 1401 1401 1400 1400 1400 1400 1401 1401 1400 1400 1400 1399 1399 1399 1399 1399 1400 1401 1401 1402 1404 1404 1406 1407 1408 1409 1411 1411
1423 1421 1420 1419 1418 1416 1415 1414 1413 1413 1411 1411 1410 1409 1408 1407 1406 1406 1406 1406 1405 1405 1405 1405 1405 1405 1404 1404 1403 1403 1402 1401 1401 1400 1400 1400 1399 1399 1398 1398 1399 1399 1400 1399 1399 1399 1399 1398 1398 1398 1398 1398 1399 1399 1400 1401 1402 1403 1404 1405 1407 1407 1407
1419 1418 1416 1415 1414 1412 1411 1410 1409 1409 1408 1407 1406 1406 1405 1404 1404 1404 1403 1403 1403 1403 1403 1403 1403 1403 1402 1401 1401 1400 1399 1399 1398 1398 1398 1397 1397 1397 1397 1397 1397 1398 1398 1398 1398 1397 1397 1397 1397 1397 1398 1398 1398 1398 1399 1400 1400 1401 1402 1403 1404 1404 1404
1415 1414 1412 1411 1409 1408 1407 1406 1406 1405 1404 1403 1403 1403 1403 1402 1401 1401 1401 1401 1401 1401 1401 1401 1401 1401 1400 1399 1398 1397 1397 1396 1396 1395 1396 1396 1395 1395 1395 1395 1395 1395 1395 1395 1395 1395 1395 1395 1396 1396 1396 1397 1397 1398 1398 1399 1399 1400 1401 1402 1402 1402 1402
1410 1409 1408 1407 1406 1404 1403 1403 1402 1401 1400 1400 1400 1400 1400 1399 1399 1399 1399 1399 1399 1399 1399 1399 1399 1399 1398 1397 1396 1395 1395 1394 1393 1393 1394 1394 1394 1394 1393 1393 1393 1393 1393 1393 1392 1392 1392 1392 1393 1393 1393 1394 1395 1396 1397 1397 1398 1399 1399 1400 1400 1400 1400
1407 1405 1404 1403 1402 1400 1399 1399 1398 1398 1397 1397 1398 1398 1397 1397 1397 1397 1397 1397 1397 1397 1397 1397 1397 1396 1396 1395 1394 1393 1392 1392 1392 1392 1392 1392 1392 1392 1392 1391 1391 1391 1390 1390 1389 1389 1389 1389 1389 1389 1390 1392 1393 1394 1394 1395 1395 1396 1397 1397 1398 1398 1398
1403 1402 1401 1400 1398 1397 1396 1396 1395 1395 1394 1394 1395 1396 1395 1395 1395 1395 1395 1395 1395 1395 1395 1395 1395 1395 1394 1394 1394 1392 1390 1390 1390 1391 1390 1390 1390 1389 1389 1389 1389 1388 1387 1387 1387 1387 1388 1388 1387 1387 1388 1389 1391 1391 1391 1392 1392 1393 1394 1395 1395 1395 1395
1400 1399 1398 1396 1395 1394 1393 1393 1393 1392 1392 1392 1393 1393 1393 1393 1393 1393 1393 1393 1393 1393 1394 1393 1393 1393 1393 1393 1393 1392 1390 1389 1389 1389 1389 1388 1388 1387 1387 1387 1386 1386 1385 1385 1385 1386 1386 1386 1386 1385 1386 1387 1388 1389 1389 1389 1389 1390 1391 1392 1392 1392 1392
1396 1395 1395 1393 1392 1392 1391 1390 1391 1390 1390 1391 1391 1391 1391 1391 1391 1391 1391 1392 1392 1392 1392 1392 1392 1392 1392 1393 1393 1391 1388 1388 1388 1387 1387 1386 1386 1385 1384 1384 1384 1383 1383 1383 1383 1383 1384 1384 1384 1384 1384 1384 1385 1386 1387 1387 1387 1388 1388 1389 1389 1390 1390
1394 1393 1392 1391 1390 1390 1389 1389 1389 1389 1389 1389 1389 1389 1389 1389 1390 1390 1390 1390 1391 1391 1391 1391 1391 1391 1391 1392 1392 1389 1386 1385 1385 1385 1385 1385 1384 1383 1382 1381 1381 1381 1381 1381 1381 1381 1382 1382 1382 1382 1382 1382 1383 1384 1384 1385 1385 1385 1386 1386 1387 1387 1387
1391 1390 1390 1389 1389 1388 1388 1388 1388 1389 1389 1389 1388 1388 1388 1388 1389 1389 1389 1389 1389 1390 1390 1389 1390 1390 1390 1390 1391 1390 1386 1383 1381 1382 1383 1383 1382 1381 1381 1380 1380 1380 1380 1380 1380 1380 1380 1380 1380 1381 1381 1381 1382 1382 1383 1383 1383 1383 1384 1384 1385 1385 1385
1390 1389 1388 1388 1388 1387 1388 1388 1388 1389 1389 1389 1388 1387 1387 1387 1388 1388 1388 1388 1388 1388 1388 1388 1388 1388 1388 1389 1390 1388 1385 1382 1381 1381 1381 1381 1380 1380 1380 1379 1379 1379 1379 1379 1379 1379 1379 1379 1380 1380 1380 1380 1381 1381 1382 1382 1382 1382 1383 1383 1383 1383 1384
1388 1387 1387 1387 1387 1387 1387 1387 1388 1388 1389 1389 1388 1386 1386 1386 1386 1387 1387 1387 1387 1387 1387 1387 1387 1387 1387 1388 1387 1385 1383 1381 1381 1381 1381 1380 1380 1379 1379 1379 1379 1378 1378 1378 1378 1378 1379 1379 1379 1379 1379 1380 1380 1380 1381 1381 1381 1381 1382 1382 1382 1382 1382
1387 1387 1386 1386 1387 1387 1387 1387 1387 1388 1388 1388 1388 1387 1385 1385 1385 1386 1386 1386 1386 1385 1385 1385 1385 1385 1385 1384 1383 1382 1381 1381 1381 1381 1380 1380 1379 1379 1378 1378 1378 1378 1378 1378 1378 1378 1378 1378 1379 1379 1379 1379 1379 1380 1380 1380 1380 1380 1381 1381 1381 1381 1381
1386 1386 1386 1386 1386 1386 1386 1387 1387 1387 1387 1387 1387 1386 1384 1384 1384 1384 1384 1384 1383 1383 1383 1383 1383 1383 1382 1382 1382 1382 1381 1381 1380 1380 1379 1379 1378 1378 1378 1378 1378 1378 1378 1378 1378 1378 1378 1378 1378 1378 1379 1379 1379 1379 1379 1379 1379 1379 1379 1379 1379 1379 1380
1386 1386 1385 1385 1386 1386 1386 1386 1386 1386 1386 1385 1385 1384 1383 1383 1382 1382 1381 1381 1381 1380 1380 1381 1381 1381 1381 1381 1381 1381 1380 1380 1379 1379 1378 1378 1378 1378 1378 1377 1378 1378 1378 1378 1378 1378 1378 1378 1378 1378 1378 1378 1378 1378 1378 1379 1379 1379 1379 1379 1379 1379 1379
1385 1385 1385 1385 1385 1385 1385 1385 1384 1384 1384 1384 1383 1383 1382 1381 1381 1380 1379 1379 1379 1379 1379 1379 1379 1380 1380 1380 1380 1380 1379 1379 1378 1378 1378 1378 1378 1378 1378 1378 1378 1378 1378 1378 1378 1378 1378 1378 1378 1378 1378 1378 1379 1379 1379 1379 1379 1379 1379 1379 1379 1379 1378
1384 1384 1384 1384 1384 1384 1384 1383 1383 1382 1382 1382 1381 1381 1381 1380 1379 1378 1378 1378 1377 1377 1378 1378 1378 1378 1379 1379 1379 1379 1378 1378 1378 1378 1378 1378 1378 1378 1378 1378 1378 1378 1378 1378 1378 1378 1378 1378 1378 1378 1378 1379 1379 1379 1379 1379 1379 1379 1379 1379 1379 1378 1378
1384 1384 1383 1383 1383 1383 1382 1382 1381 1381 1380 1380 1380 1380 1380 1379 1378 1378 1377 1377 1377 1377 1377 1377 1377 1377 1377 1378 1378 1378 1378 1378 1378 1378 1378 1378 1378 1378 1378 1378 1378 1378 1378 1378 1378 1378 1378 1378 1378 1378 1378 1379 1379 1379 1379 1379 1379 1379 1378 1378 1378 1378 1377
1383 1383 1383 1382 1382 1382 1381 1381 1380 1380 1379 1379 1379 1379 1379 1378 1378 1377 1377 1376 1376 1376 1376 1376 1376 1377 1377 1377 1377 1377 1378 1377 1378 1378 1378 1378 1378 1378 1378 1378 1378 1378 1378 1378 1378 1378 1378 1378 1378 1378 1378 1378 1378 1378 1378 1378 1378 1378 1377 1377 1377 1376 1375
1382 1382 1382 1381 1381 1381 1381 1380 1379 1380 1379 1378 1378 1378 1378 1378 1378 1378 1377 1376 1376 1376 1376 1376 1376 1376 1376 1377 1377 1377 1377 1377 1377 1378 1378 1378 1378 1378 1378 1378 1378 1378 1378 1378 1378 1378 1378 1378 1378 1378 1378 1377 1377 1377 1377 1377 1377 1377 1376 1376 1376 1375 1374
1381 1380 1380 1380 1380 1380 1380 1380 1380 1380 1379 1379 1378 1378 1377 1376 1377 1377 1377 1376 1376 1376 1375 1376 1376 1376 1376 1376 1376 1376 1377 1377 1377 1378 1378 1378 1378 1378 1378 1378 1378 1378 1378 1378 1378 1378 1378 1378 1378 1377 1377 1377 1376 1376 1376 1376 1376 1376 1375 1375 1374 1373 1373
1380 1379 1379 1379 1379 1379 1379 1379 1380 1380 1379 1378 1379 1378 1377 1376 1375 1376 1376 1376 1376 1375 1375 1375 1375 1375 1375 1375 1376 1376 1376 1377 1377 1377 1378 1378 1378 1378 1378 1378 1378 1378 1378 1378 1378 1378 1377 1377 1377 1377 1377 1376 1376 1376 1376 1376 1375 1375 1375 1374 1373 1373 1372
1379 1378 1378 1377 1377 1377 1377 1378 1378 1379 1378 1378 1377 1377 1377 1376 1376 1375 1375 1375 1375 1375 1375 1375 1375 1375 1375 1375 1376 1376 1376 1377 1377 1377 1378 1378 1378 1378 1378 1378 1378 1378 1378 1378 1378 1377 1377 1377 1377 1377 1377 1376 1376 1376 1375 1375 1375 1374 1374 1373 1372 1372 1371
1377 1376 1376 1376 1376 1376 1375 1375 1376 1376 1376 1376 1376 1375 1375 1375 1375 1375 1375 1375 1375 1375 1375 1375 1375 1375 1375 1375 1376 1376 1376 1377 1377 1377 1377 1377 1377 1378 1378 1377 1377 1377 1377 1377 1377 1377 1377 1377 1377 1377 1376 1376 1376 1375 1375 1375 1374 1373 1372 1372 1371 1370 1369
1374 1374 1374 1374 1374 1373 1373 1373 1373 1373 1374 1374 1374 1373 1373 1373 1374 1374 1374 1374 1374 1374 1374 1375 1375 1375 1375 1375 1375 1376 1376 1376 1376 1377 1377 1377 1377 1377 1377 1377 1377 1377 1377 1377 1377 1377 1377 1377 1377 1376 1376 1376 1375 1375 1374 1374 1373 1372 1371 1370 1369 1368 1367
Wind_Speed
27 28 30 31 31 32 33 33 33 33 33 34 35 34 34 35 35 35 36 35 32 29 26 25 25 24 22 23 23 23 22 22 23 23 23 23 25 27 28 27 26 29 35 36 32 31 29 26 25 24 23 22 22 23 24 25 25 25 27 30 33 35 36
27 28 30 31 32 32 33 34 33 33 33 34 34 34 34 35 35 36 37 36 34 28 24 24 24 22 22 22 22 20 20 20 21 22 23 23 23 25 27 28 27 28 32 35 33 31 29 27 26 25 23 22 22 22 23 25 24 24 24 25 27 29 31
27 28 30 31 32 33 34 34 33 32 33 33 33 34 34 35 36 37 37 36 33 27 23 22 21 19 20 21 20 19 19 19 19 20 21 22 23 24 25 27 27 26 29 33 32 29 28 27 26 26 25 24 24 24 24 24 24 23 22 21 22 23 25
27 28 29 31 33 33 34 34 33 32 32 32 33 33 34 35 36 37 37 35 31 25 21 19 17 17 18 18 18 18 17 18 18 19 20 21 21 23 24 25 27 28 29 32 32 29 28 27 26 26 25 24 24 23 23 24 22 20 19 18 18 19 19
25 26 29 31 32 33 34 34 33 33 33 32 32 33 35 36 37 37 36 31 27 22 19 17 16 16 17 17 16 17 16 16 16 16 17 18 19 21 22 22 25 27 30 32 33 31 29 27 26 25 24 23 23 22 22 22 21 20 18 17 16 16 16
25 26 28 30 31 32 33 33 33 33 33 32 32 33 35 36 37 37 33 27 23 20 17 16 16 17 17 17 18 18 19 19 19 18 17 16 16 17 19 20 21 23 26 30 32 32 30 29 27 25 23 23 23 22 21 22 22 21 21 19 18 17 17
25 26 27 28 29 30 31 32 33 33 32 33 33 35 36 36 37 35 28 22 20 17 15 15 17 17 18 18 19 19 20 20 21 22 22 20 18 17 16 17 17 18 20 23 26 27 27 26 25 24 23 23 23 23 23 23 23 23 23 22 21 20 20
24 25 26 27 28 28 30 31 31 31 32 34 35 35 36 36 35 30 23 18 16 16 16 16 16 16 18 19 19 20 20 19 18 20 21 21 20 18 16 15 14 15 15 16 18 20 21 22 23 23 23 23 24 24 24 24 24 24 24 24 24 24 24
22 23 24 25 26 27 28 29 30 32 34 35 36 36 36 35 30 24 19 17 15 16 17 17 17 17 19 20 19 20 20 20 19 19 19 20 19 18 16 15 13 12 12 12 13 15 18 21 23 24 24 24 25 25 25 25 25 25 25 25 26 26 27
21 23 24 25 26 27 29 30 33 34 36 37 37 36 34 32 26 19 15 14 15 17 17 18 19 19 19 19 18 19 19 18 17 17 18 19 20 19 18 16 14 13 11 10 10 11 14 18 21 22 23 24 24 24 25 26 26 25 24 25 25 26 27
22 24 25 27 28 30 32 34 36 37 37 37 35 31 28 26 21 16 15 16 17 17 17 18 17 16 15 16 16 18 19 18 17 17 18 19 21 21 20 18 16 14 11 10 9 9 11 14 16 18 19 21 21 22 23 24 24 24 23 23 23 23 24
24 26 28 30 32 34 36 37 37 37 35 32 28 24 22 21 18 16 17 18 17 17 18 17 17 16 17 17 18 20 21 21 21 20 20 20 20 21 21 19 16 13 12 12 11 10 10 11 12 13 15 17 18 18 19 19 20 20 19 19 19 19 20
29 31 33 34 35 36 37 36 33 31 28 25 23 21 18 17 17 18 19 18 17 17 17 17 17 18 18 19 21 22 22 23 22 21 20 18 18 18 18 18 16 13 12 13 13 13 13 13 13 13 14 14 15 15 15 15 15 16 16 16 16 17 18
33 34 34 34 33 33 32 29 27 25 23 23 21 17 15 16 18 18 17 17 16 15 15 15 16 18 19 20 21 21 20 20 20 19 17 15 14 14 15 15 14 13 12 13 14 15 16 17 17 17 17 17 16 15 15 15 15 15 16 16 16 17 19
32 30 29 28 27 27 27 25 24 23 22 20 16 12 13 16 16 16 16 15 14 13 14 16 17 18 17 17 17 17 17 17 16 15 13 12 11 12 12 13 13 11 10 11 14 15 17 18 19 21 22 21 20 20 19 19 19 19 19 19 19 20 22
28 27 26 25 25 26 26 24 23 22 20 16 12 11 14 16 16 15 15 13 13 13 15 15 16 15 14 13 13 14 14 13 12 12 12 12 12 12 12 12 12 10 9 10 14 16 17 19 20 22 23 22 20 20 20 20 21 21 21 22 22 22 23
26 26 25 25 25 25 24 23 20 18 16 12 10 11 14 15 13 12 12 11 11 13 13 13 12 12 11 10 9 9 9 10 11 14 16 16 14 13 12 11 12 14 14 15 16 17 17 18 20 21 21 20 17 16 17 18 18 19 19 19 20 20 21
26 25 23 23 23 22 21 19 16 14 13 9 8 11 14 14 12 11 10 10 12 12 11 11 10 10 9 6 5 8 12 13 14 17 19 17 14 13 12 11 12 15 17 18 18 17 17 18 19 20 20 19 17 16 16 16 16 16 16 16 17 17 17
24 23 21 20 20 18 17 15 12 10 9 7 7 11 13 12 11 11 10 10 11 10 9 9 9 10 8 4 4 10 15 16 17 18 18 16 15 14 13 12 13 14 15 17 18 18 18 18 18 19 19 18 17 15 14 15 15 14 14 14 15 15 15
21 20 19 17 17 15 13 11 8 6 5 5 7 10 10 8 8 9 8 8 7 7 8 10 10 11 10 5 3 7 13 17 19 18 16 15 14 11 11 11 11 12 13 14 15 15 16 16 16 17 16 15 14 13 13 12 12 12 12 12 13 13 13
19 18 16 14 13 11 9 7 4 1 1 3 6 6 5 6 7 7 8 8 9 10 10 10 10 10 9 6 4 3 6 13 18 18 16 15 10 7 7 8 8 8 9 10 11 12 12 13 13 13 13 12 11 10 9 9 9 9 9 9 9 10 10
16 15 13 11 10 8 6 4 3 4 5 1 6 8 7 8 8 9 10 10 10 10 9 9 11 10 6 2 4 6 7 12 18 19 17 15 9 5 5 5 5 6 6 7 7 8 8 8 9 9 8 7 7 6 5 5 6 5 5 5 5 6 6
14 12 11 9 7 6 4 2 4 6 6 3 2 6 7 7 7 7 8 9 9 11 12 14 12 5 3 8 10 12 15 17 17 17 15 12 9 6 4 3 3 3 4 4 4 4 5 5 5 5 5 4 3 2 2 2 2 2 2 2 2 3 4
11 10 8 7 5 5 4 2 4 7 7 5 2 1 3 6 8 10 12 14 15 16 16 14 8 5 10 13 14 15 16 16 15 14 13 10 7 5 4 2 2 2 2 2 2 2 3 3 3 3 3 2 2 2 1 1 1 1 1 2 3 3 4
9 8 7 6 5 5 5 5 5 7 9 9 8 9 11 14 16 17 18 18 18 16 14 10 9 11 13 14 14 14 15 15 14 12 10 7 5 4 2 1 1 2 2 2 2 3 3 3 4 4 3 3 3 3 4 3 4 4 4 5 5 6 6
8 8 7 6 6 6 6 7 7 9 10 11 13 14 17 18 18 18 18 16 14 13 11 8 9 13 15 15 14 15 14 13 11 8 6 5 4 2 1 1 1 2 2 3 3 3 4 4 4 4 4 5 5 5 5 4 4 4 5 5 5 6 6
7 7 7 7 7 7 7 8 10 11 11 12 13 14 14 15 15 15 14 12 10 9 8 7 8 11 13 14 13 12 10 8 6 5 4 3 2 1 1 1 2 2 3 3 4 3 3 3 4 4 5 5 5 4 3 2 2 3 3 3 4 5 6
7 6 6 6 7 8 9 10 10 11 12 12 11 10 10 11 12 11 9 8 7 7 6 7 7 8 9 9 8 7 5 4 3 2 1 1 1 2 2 2 3 3 3 3 3 3 3 3 3 4 4 4 3 3 2 2 1 1 1 2 3 4 5
5 4 6 8 10 10 10 11 11 11 11 10 7 7 9 11 10 8 7 6 5 5 5 5 5 6 6 5 5 4 3 2 2 2 2 2 2 3 3 3 3 3 3 3 3 3 3 3 3 3 3 3 2 2 2 2 2 2 2 3 4 4 5
6 7 9 11 12 11 11 12 10 7 6 7 7 9 11 11 7 5 5 5 4 4 3 4 4 4 4 4 4 4 3 3 3 3 3 3 3 3 3 3 3 3 2 2 3 3 3 3 3 3 3 3 3 3 3 3 3 4 4 5 5 6 8
7 9 11 12 12 12 11 9 4 3 5 5 10 13 12 8 4 3 6 5 4 3 3 3 4 4 4 4 4 4 4 4 3 3 3 2 2 2 2 3 2 2 2 2 2 3 3 3 3 2 2 3 3 4 4 5 6 6 6 6 7 8 9
7 9 11 11 11 10 8 3 4 5 6 1 8 10 10 9 6 6 7 7 5 3 3 3 4 5 5 5 5 4 4 3 3 3 2 2 2 2 2 2 2 2 2 2 3 3 3 3 2 2 2 3 4 5 5 6 6 6 7 7 8 9 10
11 11 12 13 12 10 8 4 5 6 2 3 10 11 11 13 13 12 11 9 7 4 3 3 4 5 5 4 4 3 3 2 2 2 2 1 2 2 2 2 2 2 2 3 3 3 3 3 3 3 3 3 4 5 5 5 6 7 7 8 9 10 11
14 15 16 16 15 15 14 12 9 9 10 10 12 14 15 16 17 16 13 10 7 4 4 4 4 4 4 3 3 2 2 1 1 1 1 1 1 2 2 2 2 3 3 3 3 3 4 4 4 4 4 4 4 5 6 6 7 8 9 10 10 10 11
15 17 18 18 18 18 18 17 16 15 15 16 17 18 18 16 15 14 12 10 7 5 5 5 4 4 3 3 2 2 1 1 0 0 1 1 2 2 2 3 3 3 3 3 4 4 4 5 4 4 4 4 5 6 7 8 9 10 10 11 11 12 13
16 16 17 17 17 17 17 17 17 17 16 16 18 19 18 16 13 12 11 9 7 6 6 6 5 4 3 3 3 2 2 1 0 1 1 2 2 2 3 3 3 3 3 3 4 4 4 4 4 4 5 5 6 7 8 9 9 10 10 11 13 14 15
Wind_Direction
301 302 303 305 309 312 314 314 313 314 315 317 319 321 323 325 325 325 327 327 324 320 314 307 301 297 293 290 287 285 282 278 275 273 270 267 265 262 263 264 261 263 266 266 265 265 264 264 264 264 262 259 256 253 250 248 247 247 246 245 244 242 239
294 295 297 301 305 308 309 309 308 309 311 312 314 316 319 322 323 324 325 326 323 319 313 304 298 297 294 291 290 289 286 280 277 275 273 271 269 264 260 259 259 260 264 266 266 265 265 263 261 259 256 253 252 252 251 250 247 245 244 244 244 242 240
287 288 292 297 302 304 306 305 304 304 306 308 311 314 316 319 321 323 324 323 320 317 310 300 296 297 297 297 297 295 293 290 287 283 278 275 272 268 261 257 255 255 258 262 264 264 264 263 260 258 256 254 252 252 251 249 247 244 243 243 242 242 240
278 280 287 294 299 301 302 301 300 301 303 306 309 312 314 317 319 320 322 320 316 312 304 296 294 294 296 301 304 300 295 292 289 286 282 277 273 269 263 257 254 252 253 257 260 260 260 260 259 259 258 257 254 250 246 245 245 243 240 237 236 236 235
276 281 288 293 296 297 297 296 296 298 301 304 308 311 314 316 317 319 320 315 309 306 297 289 290 292 294 297 296 293 289 286 287 287 285 280 273 267 262 257 254 252 252 255 257 257 256 256 257 257 256 254 253 249 244 242 240 237 233 228 223 221 221
285 287 289 290 291 291 291 292 293 296 299 303 308 311 313 315 317 319 317 308 301 299 290 279 282 287 289 290 289 288 286 285 286 289 291 289 283 274 265 259 254 251 251 253 256 256 255 254 253 253 251 249 248 245 241 238 234 230 229 227 223 221 221
287 286 285 284 285 285 286 288 291 294 298 302 307 311 313 315 317 316 311 299 293 292 282 274 279 285 286 286 289 289 286 284 284 287 291 293 292 288 278 268 261 254 250 249 252 254 252 250 248 244 241 239 238 237 234 232 230 228 229 231 232 232 234
281 279 278 279 280 282 284 287 290 293 298 302 307 311 313 313 314 311 302 288 284 285 282 277 279 282 281 282 286 288 288 289 288 288 290 291 291 291 289 283 275 266 257 250 245 243 240 236 233 230 227 226 227 229 229 229 229 228 230 233 237 239 241
275 273 274 276 279 281 284 288 291 295 300 304 308 310 311 310 309 303 290 281 283 286 286 287 285 280 278 279 284 289 292 294 293 291 291 291 291 290 290 292 290 282 272 259 244 234 226 222 220 219 219 219 221 224 228 230 231 231 233 236 239 242 244
275 275 277 280 282 285 288 291 294 298 302 305 308 309 308 306 305 297 285 284 289 286 282 284 283 279 277 279 283 288 292 294 295 294 293 294 294 293 292 291 293 293 288 273 253 235 221 215 214 214 216 218 221 224 227 231 234 235 237 240 242 245 247
279 280 282 284 287 289 292 294 297 300 302 303 304 304 302 300 299 294 288 286 285 281 276 274 273 274 278 281 283 287 290 294 296 296 296 296 295 295 294 292 292 294 293 286 273 252 231 219 214 212 214 217 220 223 227 231 234 237 238 241 244 246 248
284 286 287 288 289 291 292 294 296 298 299 299 299 297 296 294 290 287 285 280 275 271 269 271 275 283 288 289 289 289 290 292 294 295 295 292 291 290 290 290 291 290 286 283 277 264 247 237 229 221 218 218 218 220 223 227 231 234 236 239 241 243 245
291 292 293 293 293 293 293 295 296 297 298 297 296 295 293 286 281 282 282 274 265 262 265 270 278 284 288 290 291 290 291 292 292 292 290 288 285 284 284 285 286 283 279 275 270 262 253 249 246 239 234 231 228 227 228 231 234 236 237 240 243 245 248
297 295 295 294 294 294 295 296 297 297 297 295 294 293 287 279 279 280 275 265 260 262 269 278 284 285 287 289 290 290 290 289 288 287 288 286 283 280 280 280 278 274 268 262 258 256 253 251 250 249 247 246 244 243 243 244 245 246 246 247 249 253 255
300 298 297 296 296 296 296 297 298 297 295 293 292 287 278 276 279 277 270 267 270 276 282 286 288 288 288 288 287 287 287 286 286 287 288 289 284 279 277 276 271 266 260 254 248 247 247 246 246 247 248 249 249 250 250 251 252 252 253 253 255 258 261
300 298 298 297 297 296 295 296 296 295 292 289 284 277 276 279 282 280 278 280 283 284 286 287 288 289 288 285 285 288 287 284 284 290 296 295 288 280 278 274 262 248 238 237 237 237 241 244 248 252 254 255 255 255 254 254 253 253 253 254 256 258 261
298 298 297 297 296 295 296 297 295 293 291 284 274 275 281 286 288 285 283 282 280 282 287 290 288 284 277 275 281 280 270 266 278 294 301 301 295 287 282 272 254 242 241 244 247 248 249 251 256 261 264 264 262 259 258 258 257 257 256 257 258 260 261
299 299 299 298 297 297 297 298 297 293 287 275 267 279 288 290 287 280 272 271 276 284 288 287 283 273 266 274 280 255 248 259 281 293 296 297 297 293 285 269 250 244 244 248 252 254 254 253 256 260 265 267 267 265 264 265 265 265 264 262 262 262 263
301 301 301 299 298 300 300 300 300 292 282 269 264 277 285 284 279 272 266 270 279 285 285 280 274 266 262 272 281 263 262 269 278 283 286 293 298 292 280 266 253 246 244 244 248 251 252 254 256 260 264 268 270 270 268 267 267 267 266 265 264 262 262
302 302 302 300 300 301 301 303 302 285 277 279 272 273 275 272 268 266 267 272 276 280 283 280 274 273 273 266 263 287 294 289 282 281 288 298 302 291 274 262 252 247 244 243 245 247 250 253 256 260 264 268 269 271 270 269 268 267 266 265 265 264 263
303 303 303 302 303 304 305 307 295 233 42 314 276 264 266 264 260 261 262 266 271 277 282 284 286 288 284 261 232 271 309 294 286 290 302 309 307 284 264 257 245 239 239 238 239 242 245 248 252 256 261 265 267 268 268 266 266 265 264 263 263 265 265
303 303 303 302 304 306 312 307 226 158 103 28 268 269 279 272 264 265 264 265 271 274 281 297 304 303 295 230 176 184 216 252 272 290 306 313 309 283 261 250 230 224 224 224 229 233 236 240 244 248 252 256 258 258 256 256 258 260 263 264 264 267 271
303 301 301 301 303 304 312 296 204 177 140 121 284 302 299 276 265 271 271 272 277 282 292 303 310 312 153 158 175 203 230 251 272 291 302 305 301 293 282 258 226 216 209 209 217 222 227 232 234 237 243 245 242 239 234 230 234 242 254 266 274 286 297
302 300 298 296 297 292 288 269 217 203 194 188 194 252 267 265 277 286 286 288 290 291 295 296 279 190 177 195 212 232 253 269 282 293 296 294 292 291 282 257 222 194 180 186 199 204 211 211 206 208 207 186 165 149 140 132 95 52 15 2 355 348 346
298 295 292 287 285 282 273 263 241 229 232 239 245 254 266 277 286 290 291 294 294 292 292 283 248 221 222 233 244 257 270 278 284 288 289 288 288 283 268 234 180 159 148 149 165 180 185 177 169 164 150 133 118 100 83 67 54 43 27 16 8 359 355
292 285 282 279 278 275 270 267 262 258 257 259 263 269 275 282 290 293 295 298 296 290 286 272 242 233 238 247 255 263 271 277 281 283 283 283 285 274 235 168 147 140 136 148 164 170 164 153 143 134 117 99 83 73 61 45 39 35 22 12 3 354 349
286 279 279 278 277 277 278 278 277 277 275 274 274 275 280 289 296 298 297 295 289 283 277 260 239 234 239 247 255 261 269 273 273 274 276 271 254 203 174 157 152 152 152 157 162 157 147 137 120 106 95 83 78 79 75 61 50 38 18 1 350 343 339
279 276 284 290 292 292 290 290 291 289 285 283 281 282 292 305 308 305 301 294 284 276 269 254 241 235 237 243 248 253 256 256 254 253 235 195 170 161 158 157 159 158 151 149 148 137 124 109 93 88 85 83 86 89 88 83 68 33 360 342 340 334 329
270 274 299 306 303 299 299 302 301 293 286 285 284 290 307 315 314 307 305 298 284 271 257 244 234 228 229 232 231 227 217 194 163 141 133 133 133 140 145 144 143 135 123 121 120 108 95 83 74 66 62 63 65 61 59 56 34 12 355 349 347 337 325
284 283 295 298 296 298 308 309 302 295 300 297 286 292 306 309 303 310 324 314 291 272 250 236 225 216 209 199 188 172 144 123 114 109 109 112 122 127 121 112 108 102 98 100 95 86 77 68 59 47 36 33 27 22 24 23 18 16 8 360 355 346 338
287 270 271 277 281 293 308 309 304 33 16 311 267 274 292 288 265 317 348 340 314 283 249 228 208 191 178 162 146 126 109 101 95 93 94 96 96 94 89 89 92 89 91 95 89 81 72 62 58 45 28 22 17 15 17 15 12 12 8 3 1 356 349
257 254 260 269 276 290 305 294 152 102 55 91 207 234 274 282 281 322 342 337 324 300 246 221 194 169 151 133 121 108 98 92 83 80 80 74 78 80 73 70 71 67 69 71 74 72 65 51 49 44 32 26 21 18 19 15 11 10 9 6 6 4 359
253 260 269 277 283 288 296 275 198 182 174 186 195 216 253 276 290 310 321 319 312 289 238 209 182 159 140 126 119 108 97 92 82 80 80 68 65 61 49 49 49 45 46 51 58 63 58 46 44 45 42 37 31 26 23 19 15 13 13 12 10 8 5
251 255 262 271 279 282 284 282 262 240 241 249 250 253 260 268 280 294 302 302 294 269 232 208 187 165 143 136 136 123 111 107 85 74 65 44 42 41 36 35 38 40 44 48 52 59 65 61 55 50 46 42 37 30 25 23 19 15 13 13 11 10 11
257 257 261 266 271 274 274 276 273 264 255 254 260 266 268 268 272 280 283 282 272 252 230 213 198 179 161 160 165 156 151 150 121 49 6 16 22 25 27 30 34 35 38 47 53 59 64 63 60 58 54 47 40 33 28 25 21 15 11 10 9 10 12
266 265 266 268 270 270 269 268 269 270 266 259 257 261 265 267 268 266 263 260 255 245 232 217 204 194 186 189 192 185 182 187 214 302 335 358 7 15 26 31 30 30 39 52 57 55 57 60 59 55 49 42 38 33 27 22 19 14 8 6 6 7 8